Regional Weather Roundup
Issued by NWS

Home | Current Version | Previous Version | Graphics & Text | Print | Product List | Glossary On
Versions: 1 2 3 4 5 6 7 8 9 10 11 12 13 14 15 16 17 18 19 20 21 22 23 24 25 26 27 28 29 30 31 32 33 34 35 36 37 38 39 40 41 42 43 44 45 46 47 48 49 50
000
ASUS45 KSLC 301610
RWRUT

UTAH REGIONAL WEATHER ROUNDUP
NATIONAL WEATHER SERVICE SALT LAKE CITY UT
1000 AM MDT SAT JUL 30 2016

UTZ001>011-023>025-301700-

NORTHERN UTAH

CITY           SKY/WX    TMP DP  RH WIND       PRES   REMARKS
BRIGHAM CITY     N/A     82  45  27 CALM      29.97S
HILL AFB       MOSUNNY   80  42  25 E14       30.01S
LOGAN          MOSUNNY   74  46  36 N9        30.00S
OGDEN          MOSUNNY   80  43  26 S9        29.97F
PROVO AIRPORT  MOSUNNY   81  46  30 E7        30.03R
SALT LAKE CITY MOSUNNY   86  45  23 SE10      29.96S
VERNAL         CLOUDY    78  39  24 NE3       30.09S
WENDOVER       CLOUDY    81  45  28 NE5       29.98R
HEBER CITY     MOSUNNY   70  45  40 CALM      30.10F
WEST JORDAN    SUNNY     84  45  24 S14       30.00S

$$

UTZ012>022-026-027-301700-

SOUTHERN/CENTRAL UTAH

CITY           SKY/WX    TMP DP  RH WIND       PRES   REMARKS
BLANDING       MOSUNNY   79  44  28 S10       30.25F
BRYCE CANYON   MOSUNNY   77  41  27 W14       30.29S
CEDAR CITY     MOSUNNY   82  48  30 SW15      30.14R
DELTA          PTSUNNY   81  41  24 S12       30.05R
MILFORD        SUNNY     82  51  34 S26G35    30.07R
MOAB/CYNLANDS  CLOUDY    88  42  20 E9        30.02S
PRICE          CLOUDY    80  36  20 SW5       30.15R
ST GEORGE      MOSUNNY   88  55  33 W12       30.00R

$$

REGIONAL REPORTS     COLORADO/ARIZONA

CITY           SKY/WX    TMP DP  RH WIND       PRES   REMARKS
CRAIG, CO      SUNNY     73  42  32 CALM      30.18F
GRAND JUNCTION MOSUNNY   82  38  20 SE12      30.06F
RIFLE          SUNNY     74  41  30 CALM      30.14F
MONTROSE       CLOUDY    75  45  34 N7        30.17R
CORTEZ         CLOUDY    79  45  29 MISG      30.18S
PAGE, AZ       PTSUNNY   89  44  20 NW7       30.02R
GRAND CANYON   PTSUNNY   79  48  33 NW8       30.25S
KINGMAN        PTSUNNY   81  60  48 SW20      30.05R
FLAGSTAFF      PTSUNNY   72  53  51 SW7       30.26F

$$

REGIONAL REPORTS    NEVADA/IDAHO/WYOMING

CITY           SKY/WX    TMP DP  RH WIND       PRES   REMARKS
LAS VEGAS, NV  MOSUNNY   93  58  30 S13G18    29.87S HAZE    HX  92
ELY            PTSUNNY   72  48  42 S5        30.18R
ELKO           PTSUNNY   79  47  32 SW5       30.04R
POCATELLO, ID  SUNNY     83  41  22 W9        29.97S
BURLEY         PTSUNNY   73  53  49 CALM      29.93R
EVANSTON, WY   SUNNY     77  34  21 VRB7      30.20S
ROCK SPRINGS   SUNNY     73  43  33 SW5       30.18S
KEMMERER         N/A     75  32  20 S3        30.21S

$$



USA.gov is the U.S. government's official web portal to all federal, state and local government web resources and services.